[[{"header":{"parameterUnit":"m.s-1","parameterCategory":1,"la1":30.2991,"la2":30.254,"lo1":-89.0895,"lo2":-89.0444,"dy":0.0017,"dx":0.0017,"nx":28,"ny":28,"refTime":"2023-08-31T21:00:00:Z","depth":0,"parameterNumber":2,"parameterNumberName":"U-component_of_WINDS"},"data":[0,0,0,0,0,0,0,0,0,0,0,0,0,0,0,0,0,0,0,0,0,0,0,0,0,0,0,0,0,0,0,0,0,0,0,0,0,0,0,0,0,0,0,0,0,0,0,0,0,0,0,0,0,0,0,0,0,0,0.7379,0.738,0,0.7453,0.7454,0.7454,0.7502,0.7503,0.7503,0.7503,0.7575,0.7576,0.7578,0,0,0,0,0,0,0,0,0,0,0,0,0,0.7275,0.7277,0.7379,0.738,0.7381,0.7453,0.7454,0.7455,0.7502,0.7503,0.7503,0.7503,0.7574,0.7576,0.7578,0,0,0,0,0,0,0,0,0,0,0,0,0,0.7332,0.7278,0.7379,0.7414,0.7417,0.7452,0.7454,0.7455,0.7502,0.7503,0.7503,0.7504,0.7573,0.7576,0.7578,0.7583,0,0,0.7585,0.7586,0,0,0,0,0,0,0,0,0.7328,0.7335,0.7408,0.7411,0.7416,0.7469,0.7443,0.7498,0.7502,0.747,0.7503,0.7504,0.7539,0.7544,0.7557,0.7587,0.759,0.7586,0.7587,0.7588,0.7589,0,0,0,0,0,0,0,0.7325,0.7333,0.7408,0.7409,0.7413,0.7424,0.7432,0.7454,0.7501,0.7473,0.7476,0.7485,0.7541,0.7554,0.7559,0.7591,0.7586,0.7588,0.7589,0.759,0.7628,0.7627,0,0,0,0,0,0,0.7316,0.7329,0.7406,0.741,0.7372,0.7425,0.7435,0.7451,0.7501,0.7509,0.7484,0.7487,0.755,0.7556,0.7561,0.757,0.7588,0.759,0.7592,0.7628,0.7628,0.7627,0,0,0,0,0,0,0.7313,0.7322,0.7403,0.7371,0.7382,0.7427,0.7445,0.7452,0.7466,0.7509,0.7517,0.7489,0.7551,0.7558,0.7578,0.7573,0.7591,0.7594,0.7629,0.7628,0.7627,0.7588,0,0,0,0,0,0,0.731,0.7321,0.7325,0.7371,0.7383,0.7419,0.7444,0.7454,0.747,0.7474,0.7516,0.7524,0.7551,0.7574,0.758,0.7577,0.7596,0.7629,0.7628,0.7628,0.759,0.7586,0.7583,0,0,0,0,0,0.7306,0.731,0.7325,0.7334,0.7389,0.7419,0.7426,0.7459,0.747,0.7473,0.7501,0.7522,0.7573,0.7575,0.7583,0.758,0.763,0.7629,0.7628,0.7591,0.7587,0.7583,0,0,0,0,0,0,0.7261,0.7317,0.7334,0.7352,0.7381,0.7427,0.7432,0.7453,0.7478,0.748,0.7519,0.7528,0.7543,0.7564,0.7566,0.7587,0.7604,0.7604,0.7573,0.7569,0.7566,0.756,0.7598,0,0,0,0,0,0.7254,0.7275,0.7321,0.7333,0.7347,0.7387,0.7401,0.7424,0.7454,0.7466,0.7495,0.7523,0.7545,0.7558,0.7581,0.7593,0.7602,0.7595,0.7591,0.7588,0.7588,0.7594,0.7591,0.7624,0.7624,0.7624,0,0,0.7238,0.7271,0.7281,0.7325,0.735,0.7369,0.7397,0.7416,0.743,0.7469,0.7489,0.7511,0.7544,0.756,0.7568,0.7577,0.7581,0.7587,0.7584,0.7586,0.7593,0.759,0.7587,0.7623,0.7623,0.7623,0,0,0.7219,0.7246,0.7259,0.7283,0.7321,0.7347,0.735,0.7393,0.741,0.7431,0.746,0.7477,0.7514,0.7536,0.7552,0.7541,0.7561,0.7547,0.7528,0.7534,0.7532,0.7529,0.7524,0.7522,0.7547,0.7546,0.7546,0,0.7194,0.7226,0.7262,0.728,0.7298,0.7335,0.7347,0.7368,0.741,0.7421,0.7431,0.7478,0.7503,0.7524,0.7521,0.7533,0.7536,0.7542,0.7529,0.7527,0.7526,0.7521,0.7519,0.7544,0.7545,0.7545,0.7545,0,0.7193,0.7214,0.7219,0.726,0.7279,0.7293,0.7331,0.7345,0.7366,0.7391,0.7411,0.7443,0.7472,0.7479,0.7499,0.7502,0.7506,0.7522,0.7539,0.752,0.7517,0.7515,0.7542,0.7542,0.7543,0.7543,0,0,0.7147,0.7208,0.7209,0.7228,0.7272,0.7288,0.7304,0.7334,0.7344,0.7372,0.7385,0.7415,0.743,0.7448,0.7472,0.7477,0.7465,0.7493,0.7494,0.7485,0.7468,0.7455,0.7452,0.7479,0.7478,0.7478,0.7465,0,0.7134,0.7166,0.7199,0.7218,0.7237,0.7272,0.7286,0.7313,0.7336,0.7355,0.738,0.7401,0.742,0.7431,0.7438,0.7465,0.7461,0.7466,0.749,0.749,0.7479,0.7451,0.7437,0.7423,0.7464,0.7463,0.7463,0,0.7123,0.715,0.7171,0.7212,0.7221,0.7233,0.7262,0.728,0.7311,0.7328,0.7348,0.7373,0.7389,0.7405,0.7427,0.743,0.7441,0.7456,0.7456,0.7459,0.7475,0.7451,0.7419,0.7416,0.7462,0.7462,0.7462,0,0.7086,0.7127,0.7145,0.716,0.7209,0.7216,0.7236,0.7268,0.7284,0.7309,0.7319,0.7345,0.7359,0.7378,0.7409,0.7418,0.7428,0.7446,0.7441,0.744,0.7441,0.744,0.7409,0.745,0.745,0.745,0.745,0,0.7067,0.7078,0.713,0.714,0.7154,0.7191,0.7203,0.7226,0.7254,0.7268,0.73,0.7313,0.7353,0.7371,0.7395,0.7409,0.7415,0.7428,0.7434,0.7425,0.7423,0.7432,0.7433,0.7449,0.7449,0.7449,0.7449,0,0.7028,0.7063,0.7085,0.7129,0.714,0.7148,0.7185,0.7196,0.7222,0.724,0.7246,0.7285,0.7307,0.734,0.7372,0.7388,0.7398,0.7408,0.7387,0.7391,0.7383,0.7383,0.7356,0.7354,0.7397,0.7396,0.7396,0,0.7013,0.7023,0.7069,0.7081,0.7101,0.7121,0.7137,0.7174,0.7189,0.7225,0.7231,0.7256,0.7277,0.731,0.7341,0.7364,0.7375,0.7364,0.7379,0.7369,0.7374,0.7372,0.7373,0.736,0.7359,0.7359,0.7359,0,0.6983,0.7,0.7023,0.7051,0.7069,0.7093,0.7118,0.7127,0.7168,0.7183,0.7207,0.7224,0.7256,0.7279,0.7308,0.7327,0.7349,0.7354,0.7354,0.7344,0.7331,0.7336,0.7377,0.7354,0.7354,0.7355,0.7355,0.7355,0.6955,0.6965,0.6999,0.7022,0.7045,0.7068,0.708,0.7107,0.7128,0.7158,0.7178,0.72,0.7229,0.727,0.7288,0.7304,0.7314,0.7314,0.7314,0.7313,0.7309,0.7329,0.731,0.731,0.731,0.731,0.731,0,0.6926,0.6949,0.6971,0.7005,0.7023,0.7044,0.7073,0.7086,0.7105,0.7132,0.7153,0.7179,0.7201,0.7233,0.7258,0.7265,0.7276,0.727,0.727,0.7273,0.7299,0.7297,0.7261,0.7261,0.7261,0.7261,0.7261,0.7261,0.6912,0.693,0.695,0.6979,0.7002,0.7024,0.7038,0.7059,0.708,0.7108,0.7128,0.7149,0.7177,0.7204,0.7225,0.7234,0.7241,0.7232,0.7244,0.7267,0.7272,0.7276,0.7273,0.7234,0.7234,0.7216,0.7216,0.7216]},{"header":{"parameterUnit":"m.s-1","parameterCategory":1,"la1":30.2991,"la2":30.254,"lo1":-89.0895,"lo2":-89.0444,"dy":0.0017,"dx":0.0017,"nx":28,"ny":28,"refTime":"2023-08-31T21:00:00:Z","depth":0,"parameterNumber":3,"parameterNumberName":"V-component_of_WINDS"},"data":[0,0,0,0,0,0,0,0,0,0,0,0,0,0,0,0,0,0,0,0,0,0,0,0,0,0,0,0,0,0,0,0,0,0,0,0,0,0,0,0,0,0,0,0,0,0,0,0,0,0,0,0,0,0,0,0,0,0,0.9481,0.9481,0,0.9418,0.9417,0.9416,0.9366,0.9366,0.9365,0.9365,0.9299,0.9298,0.9296,0,0,0,0,0,0,0,0,0,0,0,0,0,0.9558,0.9557,0.9481,0.9481,0.948,0.9418,0.9417,0.9416,0.9366,0.9366,0.9365,0.9365,0.9299,0.9298,0.9296,0,0,0,0,0,0,0,0,0,0,0,0,0,0.9513,0.9557,0.9481,0.9448,0.9444,0.9418,0.9417,0.9416,0.9367,0.9366,0.9365,0.9364,0.93,0.9298,0.9296,0.9298,0,0,0.929,0.9289,0,0,0,0,0,0,0,0,0.9515,0.951,0.9453,0.945,0.9446,0.9399,0.942,0.9376,0.9367,0.9396,0.9365,0.9364,0.9333,0.9328,0.9318,0.9295,0.9292,0.929,0.9289,0.9288,0.9287,0,0,0,0,0,0,0,0.9519,0.9512,0.9456,0.9453,0.9448,0.9435,0.9428,0.9411,0.9369,0.9393,0.939,0.9383,0.9331,0.932,0.9316,0.9292,0.929,0.9288,0.9287,0.9286,0.9267,0.9268,0,0,0,0,0,0,0.9527,0.9515,0.9458,0.9454,0.9479,0.9434,0.9426,0.9415,0.9369,0.9362,0.9383,0.9381,0.9323,0.9318,0.9313,0.9313,0.9288,0.9286,0.9285,0.9267,0.9267,0.9268,0,0,0,0,0,0,0.9529,0.9523,0.9461,0.9484,0.9475,0.9434,0.9421,0.9414,0.9403,0.9362,0.9354,0.938,0.9323,0.9316,0.9302,0.931,0.9285,0.9283,0.9266,0.9267,0.9268,0.9312,0,0,0,0,0,0,0.9531,0.9524,0.9525,0.9484,0.9474,0.9452,0.9422,0.9413,0.94,0.9396,0.9357,0.9349,0.9322,0.9306,0.93,0.9307,0.9282,0.9265,0.9266,0.9267,0.931,0.9315,0.9319,0,0,0,0,0,0.9534,0.9539,0.9525,0.9518,0.9474,0.9452,0.9446,0.9414,0.9401,0.9401,0.9374,0.9351,0.931,0.9305,0.9298,0.9304,0.9264,0.9266,0.9267,0.9308,0.9314,0.9319,0,0,0,0,0,0,0.9582,0.9534,0.9517,0.9509,0.9485,0.9444,0.9443,0.9421,0.94,0.9397,0.9358,0.935,0.934,0.9321,0.9316,0.9304,0.9284,0.9284,0.9317,0.9322,0.9326,0.9331,0.928,0,0,0,0,0,0.9591,0.9578,0.9536,0.9533,0.9522,0.9485,0.9474,0.9451,0.9425,0.9414,0.9387,0.9361,0.9343,0.9331,0.9312,0.9307,0.9297,0.9308,0.9312,0.9316,0.9317,0.9312,0.9316,0.9273,0.9273,0.9273,0,0,0.9611,0.9583,0.9577,0.9542,0.9521,0.9507,0.9477,0.9464,0.9453,0.9412,0.9398,0.9377,0.9346,0.9336,0.9331,0.932,0.9326,0.9318,0.9321,0.932,0.9314,0.9318,0.9322,0.9274,0.9274,0.9274,0,0,0.9639,0.9617,0.9612,0.9591,0.9559,0.9534,0.9533,0.9495,0.9479,0.9464,0.9433,0.942,0.9389,0.9368,0.9353,0.9373,0.9351,0.9368,0.9391,0.9387,0.939,0.9393,0.94,0.9403,0.9369,0.9369,0.9369,0,0.9667,0.9646,0.9612,0.9601,0.9586,0.9549,0.9543,0.9525,0.9488,0.9479,0.9467,0.9427,0.9403,0.9388,0.9393,0.9383,0.938,0.9372,0.9393,0.9395,0.9397,0.9404,0.9406,0.9371,0.9371,0.9371,0.9371,0,0.9682,0.9668,0.9667,0.9633,0.9619,0.961,0.9574,0.9564,0.9542,0.9518,0.9503,0.9474,0.9448,0.9442,0.9421,0.9424,0.9418,0.94,0.9379,0.9404,0.9409,0.9412,0.9375,0.9374,0.9373,0.9373,0,0,0.9739,0.9686,0.9686,0.967,0.9632,0.962,0.961,0.9584,0.9576,0.9551,0.9542,0.9516,0.9499,0.9482,0.9458,0.9455,0.9472,0.9437,0.9435,0.9444,0.9473,0.9487,0.9491,0.9457,0.9457,0.9457,0.9476,0,0.9762,0.9741,0.971,0.97,0.9686,0.965,0.9641,0.9616,0.9593,0.9578,0.9552,0.9535,0.9514,0.9503,0.9498,0.9471,0.9477,0.9469,0.9447,0.9446,0.9456,0.9493,0.9508,0.9527,0.9478,0.9478,0.9478,0,0.9785,0.9763,0.9752,0.9714,0.9707,0.97,0.9674,0.9659,0.963,0.9614,0.9596,0.9569,0.9556,0.9537,0.9518,0.9513,0.9502,0.9487,0.9487,0.9484,0.9464,0.9491,0.9532,0.9535,0.9481,0.9481,0.9481,0,0.9828,0.9795,0.9784,0.9771,0.9728,0.9723,0.9704,0.9675,0.9661,0.9638,0.9629,0.9605,0.9592,0.9573,0.9541,0.953,0.9525,0.9504,0.9511,0.9512,0.9512,0.9512,0.9552,0.9505,0.9505,0.9504,0.9504,0,0.9856,0.9851,0.9803,0.9796,0.9788,0.9752,0.9745,0.9723,0.9697,0.9685,0.9652,0.9641,0.96,0.9584,0.9559,0.9546,0.9541,0.9527,0.952,0.953,0.9532,0.9522,0.952,0.9505,0.9505,0.9505,0.9505,0,0.9903,0.987,0.9856,0.9815,0.9805,0.9801,0.9766,0.9758,0.9733,0.9718,0.9712,0.9674,0.9653,0.9619,0.9589,0.9572,0.9564,0.9553,0.9574,0.957,0.9579,0.9579,0.9614,0.9617,0.9569,0.9569,0.9569,0,0.9923,0.9918,0.9877,0.9867,0.9849,0.9833,0.9819,0.9783,0.977,0.9736,0.9732,0.9709,0.9689,0.9658,0.9626,0.9603,0.9591,0.9605,0.9587,0.9597,0.9591,0.9592,0.9591,0.9609,0.961,0.961,0.9611,0,0.9963,0.9947,0.9928,0.9904,0.9888,0.9868,0.9845,0.9838,0.9797,0.9784,0.9762,0.9747,0.9716,0.9693,0.9665,0.9646,0.9621,0.9617,0.9617,0.9627,0.9639,0.9633,0.9586,0.9616,0.9615,0.9615,0.9615,0.9615,0.9997,0.999,0.996,0.994,0.992,0.9899,0.9889,0.9863,0.9845,0.9817,0.9797,0.9777,0.9748,0.9708,0.9689,0.9673,0.9662,0.9663,0.9663,0.9663,0.9667,0.9642,0.9668,0.9667,0.9667,0.9667,0.9667,0,1.0034,1.0013,0.9995,0.9965,0.9949,0.9928,0.9901,0.989,0.9873,0.9847,0.9828,0.9804,0.9782,0.9749,0.9724,0.9717,0.9705,0.9712,0.9712,0.9708,0.9678,0.968,0.9722,0.9722,0.9722,0.9722,0.9722,0.9722,1.0052,1.004,1.0021,0.9998,0.9976,0.9957,0.9944,0.9924,0.9904,0.9878,0.986,0.9839,0.981,0.9783,0.9761,0.9752,0.9744,0.9755,0.9742,0.9715,0.971,0.9705,0.9707,0.9753,0.9753,0.9773,0.9773,0.9773]}]]